Simultaneous Nadir Overpasses (SNOs) Predictions

Prediction of SNOs between GOES-15 and LANDSAT-8 Satellite Orbit:

Table of predicted SNOs for the next 14.0 days since TLE Epoch: 7/20/2024
Index Date Time (GOES-15) GOES-15 Lat,Lon LANDSAT-8 Lat,Lon Distance(km) Time Diff (sec)
1 07/21/2024 17:53:07 -0.02, 61.21 0.60, 64.24 344.69 80
2 07/22/2024 06:17:03 0.06, 61.14 0.49, 59.09 232.83 80
3 07/24/2024 06:02:13 0.05, 61.15 -0.16, 62.04 101.42 80
4 07/24/2024 18:26:16 -0.09, 61.23 -1.03, 56.87 496.39 80
5 07/26/2024 05:50:02 0.04, 61.17 -0.77, 65.00 435.83 80
6 07/26/2024 18:14:05 -0.08, 61.25 -0.41, 59.83 162.00 80
7 07/28/2024 17:59:14 -0.07, 61.27 0.24, 62.78 172.11 80
8 07/29/2024 06:23:09 0.12, 61.20 0.89, 57.63 405.37 80
9 07/31/2024 06:10:57 0.12, 61.23 0.26, 60.60 71.72 80
10 08/02/2024 05:56:05 0.11, 61.26 -0.39, 63.56 261.62 80
11 08/02/2024 18:20:08 -0.16, 61.34 -0.77, 58.38 336.42 80
